sat.trackr.live / text

‹ back to catalog

STARLINK-37044

NORAD 68247 · 2026-054R

PAYLOAD ACTIVE UNKNOWN

§ Identity

Operator
Country
US
Launch date
2026-03-17
Launch site
AFETR
Launch vehicle
Mass (kg)
RCS (m²)

Purposes: comms

External: N2YO · Heavens-Above · Gunter

§ Orbital elements

Epoch: 2026-09-20T00:53:40.757856Z

Period
93.85 min
Inclination
53.1582°
Eccentricity
0.0001080
Mean motion
15.34402344 rev/d
Perigee alt
462.0 km
Apogee alt
463.4 km
Semi-major
6,840.8 km
B*
3.8024e-4
RAAN
103.7487°
Arg perigee
87.5304°
Mean anomaly
272.5823°
Rev number
2,889

§ Raw data

STARLINK-370441 68247U 26054R   26263.03727729  .00012493  00000+0  38024-3 0  99982 68247  53.1582 103.7487 0001080  87.5304 272.5823 15.34402344 28895

JSON: /api/v1/satellites/68247 · /tle

For live sub-satellite position, see the globe view (requires WebGL).

§ Visibility from observer

Set your observer location to see the next 7 days of passes ≥ 10°. The values pass through the URL so the page stays shareable.

No JS? Fill the form by hand. The geolocation button needs JavaScript.